[[{"header":{"parameterUnit":"m.s-1","parameterCategory":1,"la1":30.2992,"la2":30.254,"lo1":-89.0895,"lo2":-89.0443,"dy":0.0025,"dx":0.0025,"nx":19,"ny":19,"refTime":"2026-04-26T09:00:00:Z","depth":0,"parameterNumber":2,"parameterNumberName":"U-component_of_WINDS"},"data":[0,0,0,-1.9883,-1.9884,-1.9911,-1.9911,-1.9957,-1.9958,0,0,0,0,0,0,0,0,0,0,0,-1.9883,-1.9883,-1.9883,-1.9884,-1.9911,-1.9911,-1.9957,-1.9958,0,0,0,0,0,0,0,0,0,0,0,-1.9883,-1.9883,-1.9884,-1.9884,-1.9911,-1.9911,-1.9957,-1.9933,0,0,0,0,0,0,0,0,0,0,-1.9905,-1.9911,-1.9883,-1.9884,-1.9884,-1.9911,-1.9911,-1.9931,-1.9934,-1.9951,0,-1.9967,0,-1.9963,-1.9962,-1.9962,0,0,0,-1.9879,-1.9909,-1.9909,-1.9884,-1.9885,-1.9911,-1.9897,-1.9933,-1.9936,-1.9955,-1.9968,-1.9969,-1.9964,-1.9962,-1.9962,-2.0076,-2.0076,0,0,-1.9877,-1.9892,-1.9907,-1.9912,-1.9908,-1.9896,-1.9898,-1.9935,-1.995,-1.9968,-1.997,-1.9965,-1.9963,-1.9963,-2.0075,-2.0076,0,0,0,-1.9877,-1.9891,-1.989,-1.991,-1.9914,-1.9897,-1.9899,-1.9948,-1.9947,-1.997,-1.9965,-1.9963,-1.9964,-2.0074,-2.0075,-2.0129,0,0,0,-1.9876,-1.989,-1.989,-1.9899,-1.9914,-1.9931,-1.9912,-1.9944,-1.9948,-1.9965,-1.9963,-1.9964,-2.0073,-2.0075,-2.0125,-2.0152,0,0,0,-1.9879,-1.9891,-1.9897,-1.99,-1.9911,-1.993,-1.9931,-1.9944,-1.9945,-1.9962,-1.9964,-2.0073,-2.0074,-2.0122,-2.0147,-2.0186,0,0,0,-1.9886,-1.9943,-1.9898,-1.9961,-1.9911,-1.9963,-1.993,-1.9968,-1.9989,-1.9963,-2.0073,-2.0075,-2.0121,-2.0143,-2.0183,-2.0223,-2.0241,0,0,-1.9967,-1.9954,-1.9989,-1.9949,-2.0013,-1.9958,-2.0029,-2.0034,-2.0023,-2.0059,-2.0061,-2.0126,-2.0146,-2.0186,-2.0333,-2.0347,0,0,0,-2.002,-2.0046,-2.0059,-2.008,-2.0085,-2.0093,-2.0086,-2.0088,-2.0118,-2.0044,-2.015,-2.0162,-2.0184,-2.0203,-2.0215,-2.0234,-2.0084,-2.0084,-2.0084,-2.0155,-2.0137,-2.0195,-2.0181,-2.0202,-2.0194,-2.0209,-2.0211,-2.0186,-2.0212,-2.0223,-2.0314,-2.0336,-2.0345,-2.0365,-2.0242,-2.0242,-2.0242,-2.0242,-2.0272,-2.0307,-2.0273,-2.0318,-2.0299,-2.0337,-2.0332,-2.0314,-2.0346,-2.0304,-2.0323,-2.0281,-2.0361,-2.0378,-2.0246,-2.0245,-2.0245,-2.0244,-2.0244,-2.036,-2.0373,-2.0375,-2.0403,-2.0427,-2.041,-2.0444,-2.0425,-2.0407,-2.0426,-2.0436,-2.0435,-2.0433,-2.0432,-2.0432,-2.0433,-2.0433,-2.0433,-2.0433,-2.045,-2.045,-2.048,-2.0491,-2.0502,-2.0515,-2.0508,-2.0519,-2.0526,-2.051,-2.051,-2.0484,-2.0372,-2.0345,-2.0438,-2.0437,-2.0437,-2.0436,-2.0436,-2.0577,-2.0546,-2.0592,-2.0603,-2.0615,-2.0641,-2.0617,-2.064,-2.0646,-2.0663,-2.0633,-2.0553,-2.0539,-2.0529,-2.0507,-2.0636,-2.0636,-2.0636,-2.0636,-2.0652,-2.0642,-2.0686,-2.0706,-2.0723,-2.0705,-2.0759,-2.0755,-2.0746,-2.0749,-2.0727,-2.0695,-2.0686,-2.0677,-2.0664,-2.0643,-2.0804,-2.0804,-2.0804,-2.073,-2.0721,-2.0771,-2.0761,-2.0769,-2.0777,-2.0827,-2.0851,-2.0834,-2.0811,-2.0751,-2.0744,-2.0692,-2.0676,-2.0652,-2.0633,-2.0593,0,0]},{"header":{"parameterUnit":"m.s-1","parameterCategory":1,"la1":30.2992,"la2":30.254,"lo1":-89.0895,"lo2":-89.0443,"dy":0.0025,"dx":0.0025,"nx":19,"ny":19,"refTime":"2026-04-26T09:00:00:Z","depth":0,"parameterNumber":3,"parameterNumberName":"V-component_of_WINDS"},"data":[0,0,0,1.7355,1.7353,1.7214,1.7213,1.7056,1.7055,0,0,0,0,0,0,0,0,0,0,0,1.7413,1.7412,1.7355,1.7352,1.7214,1.7213,1.7056,1.7055,0,0,0,0,0,0,0,0,0,0,0,1.7413,1.7413,1.7412,1.7352,1.7214,1.7213,1.7057,1.7153,0,0,0,0,0,0,0,0,0,0,1.7283,1.7354,1.7413,1.7412,1.7351,1.7215,1.7213,1.7157,1.7147,1.7129,0,1.7122,0,1.7086,1.7046,1.7046,0,0,0,1.7338,1.7363,1.7311,1.7412,1.735,1.7215,1.7273,1.7151,1.714,1.7116,1.7119,1.7113,1.7084,1.7045,1.7045,1.6999,1.7,0,0,1.7346,1.7396,1.7319,1.7305,1.7333,1.7277,1.7269,1.7144,1.7149,1.7119,1.7108,1.7081,1.7044,1.7043,1.6999,1.6999,0,0,0,1.7377,1.7402,1.7352,1.7312,1.7286,1.7274,1.7263,1.7155,1.7135,1.7107,1.7079,1.7044,1.7042,1.6998,1.6999,1.7072,0,0,0,1.7381,1.742,1.7356,1.7385,1.7289,1.7219,1.7278,1.7143,1.7128,1.708,1.7044,1.7041,1.6998,1.6999,1.7068,1.7097,0,0,0,1.7416,1.7424,1.741,1.7388,1.7331,1.722,1.7193,1.7139,1.7112,1.7046,1.704,1.6997,1.6998,1.7066,1.7092,1.7101,0,0,0,1.7466,1.7474,1.7412,1.7409,1.7333,1.7268,1.7193,1.714,1.7093,1.7043,1.6998,1.6999,1.7065,1.7089,1.7098,1.7118,1.7131,0,0,1.7503,1.748,1.7474,1.7415,1.7375,1.7285,1.7252,1.7159,1.7104,1.7036,1.7034,1.7069,1.7092,1.71,1.7184,1.7195,0,0,0,1.7502,1.7499,1.7478,1.7437,1.7369,1.7312,1.7219,1.7184,1.7125,1.7081,1.7073,1.7084,1.7087,1.7094,1.7103,1.7102,1.7004,1.7004,1.7004,1.7625,1.756,1.7546,1.7463,1.7424,1.7329,1.729,1.7226,1.7167,1.7167,1.7146,1.7206,1.7216,1.7223,1.7223,1.715,1.7151,1.7151,1.7151,1.7674,1.7659,1.7584,1.7545,1.7473,1.7437,1.7345,1.7305,1.7258,1.7215,1.7214,1.7174,1.7237,1.7233,1.7156,1.7155,1.7154,1.7154,1.7153,1.7748,1.773,1.769,1.7625,1.7581,1.7494,1.7455,1.739,1.7327,1.7326,1.7298,1.7296,1.7287,1.7317,1.7318,1.7318,1.7318,1.7318,1.7318,1.7841,1.7794,1.7771,1.7701,1.7666,1.7612,1.7517,1.7479,1.742,1.7375,1.7375,1.7317,1.7256,1.7243,1.7321,1.7321,1.732,1.732,1.732,1.7916,1.7889,1.7855,1.7821,1.7732,1.7693,1.761,1.754,1.7499,1.7481,1.7422,1.7389,1.7358,1.7351,1.7339,1.7438,1.7438,1.7438,1.7438,1.798,1.7959,1.7909,1.7859,1.7802,1.7725,1.7684,1.7609,1.7526,1.7496,1.7471,1.745,1.7445,1.7418,1.7409,1.7397,1.7508,1.7508,1.7508,1.8022,1.7993,1.7974,1.7897,1.7823,1.7759,1.7719,1.7661,1.756,1.7509,1.7471,1.7468,1.7432,1.7425,1.7374,1.7361,1.7338,0,0]}]]